Index of /20260501/WXO-DD/model_gdps/15km/00/150
Name Last modified Size Description
Parent Directory -
20260501T00Z_MSC_GDPS_AbsoluteVorticity_IsbL-0200_LatLon0.15_PT150H.grib2 2026-05-01 04:36 1.5M
20260501T00Z_MSC_GDPS_AbsoluteVorticity_IsbL-0250_LatLon0.15_PT150H.grib2 2026-05-01 04:36 1.3M
20260501T00Z_MSC_GDPS_AbsoluteVorticity_IsbL-0500_LatLon0.15_PT150H.grib2 2026-05-01 04:36 1.5M
20260501T00Z_MSC_GDPS_AbsoluteVorticity_IsbL-0700_LatLon0.15_PT150H.grib2 2026-05-01 04:36 1.3M
20260501T00Z_MSC_GDPS_AbsoluteVorticity_IsbL-0850_LatLon0.15_PT150H.grib2 2026-05-01 04:36 1.6M
20260501T00Z_MSC_GDPS_AirTemp-Max_AGL-2m_LatLon0.15_PT150H.grib2 2026-05-01 04:36 742K
20260501T00Z_MSC_GDPS_AirTemp-Min_AGL-2m_LatLon0.15_PT150H.grib2 2026-05-01 04:36 901K
20260501T00Z_MSC_GDPS_AirTemp_AGL-120m_LatLon0.15_PT150H.grib2 2026-05-01 04:36 900K
20260501T00Z_MSC_GDPS_AirTemp_AGL-2m_LatLon0.15_PT150H.grib2 2026-05-01 04:36 1.0M
20260501T00Z_MSC_GDPS_AirTemp_AGL-40m_LatLon0.15_PT150H.grib2 2026-05-01 04:36 921K
20260501T00Z_MSC_GDPS_AirTemp_AGL-80m_LatLon0.15_PT150H.grib2 2026-05-01 04:36 909K
20260501T00Z_MSC_GDPS_AirTemp_IsbL-0001_LatLon0.15_PT150H.grib2 2026-05-01 04:36 659K
20260501T00Z_MSC_GDPS_AirTemp_IsbL-0005_LatLon0.15_PT150H.grib2 2026-05-01 04:36 687K
20260501T00Z_MSC_GDPS_AirTemp_IsbL-0010_LatLon0.15_PT150H.grib2 2026-05-01 04:36 691K
20260501T00Z_MSC_GDPS_AirTemp_IsbL-0020_LatLon0.15_PT150H.grib2 2026-05-01 04:36 785K
20260501T00Z_MSC_GDPS_AirTemp_IsbL-0030_LatLon0.15_PT150H.grib2 2026-05-01 04:36 751K
20260501T00Z_MSC_GDPS_AirTemp_IsbL-0050_LatLon0.15_PT150H.grib2 2026-05-01 04:36 797K
20260501T00Z_MSC_GDPS_AirTemp_IsbL-0100_LatLon0.15_PT150H.grib2 2026-05-01 04:36 953K
20260501T00Z_MSC_GDPS_AirTemp_IsbL-0150_LatLon0.15_PT150H.grib2 2026-05-01 04:36 958K
20260501T00Z_MSC_GDPS_AirTemp_IsbL-0175_LatLon0.15_PT150H.grib2 2026-05-01 04:36 953K
20260501T00Z_MSC_GDPS_AirTemp_IsbL-0200_LatLon0.15_PT150H.grib2 2026-05-01 04:36 969K
20260501T00Z_MSC_GDPS_AirTemp_IsbL-0225_LatLon0.15_PT150H.grib2 2026-05-01 04:36 970K
20260501T00Z_MSC_GDPS_AirTemp_IsbL-0250_LatLon0.15_PT150H.grib2 2026-05-01 04:36 1.0M
20260501T00Z_MSC_GDPS_AirTemp_IsbL-0275_LatLon0.15_PT150H.grib2 2026-05-01 04:36 1.0M
20260501T00Z_MSC_GDPS_AirTemp_IsbL-0300_LatLon0.15_PT150H.grib2 2026-05-01 04:36 1.0M
20260501T00Z_MSC_GDPS_AirTemp_IsbL-0350_LatLon0.15_PT150H.grib2 2026-05-01 04:36 924K
20260501T00Z_MSC_GDPS_AirTemp_IsbL-0400_LatLon0.15_PT150H.grib2 2026-05-01 04:36 937K
20260501T00Z_MSC_GDPS_AirTemp_IsbL-0450_LatLon0.15_PT150H.grib2 2026-05-01 04:36 961K
20260501T00Z_MSC_GDPS_AirTemp_IsbL-0500_LatLon0.15_PT150H.grib2 2026-05-01 04:36 1.0M
20260501T00Z_MSC_GDPS_AirTemp_IsbL-0550_LatLon0.15_PT150H.grib2 2026-05-01 04:36 1.0M
20260501T00Z_MSC_GDPS_AirTemp_IsbL-0600_LatLon0.15_PT150H.grib2 2026-05-01 04:36 884K
20260501T00Z_MSC_GDPS_AirTemp_IsbL-0650_LatLon0.15_PT150H.grib2 2026-05-01 04:36 914K
20260501T00Z_MSC_GDPS_AirTemp_IsbL-0700_LatLon0.15_PT150H.grib2 2026-05-01 04:36 951K
20260501T00Z_MSC_GDPS_AirTemp_IsbL-0750_LatLon0.15_PT150H.grib2 2026-05-01 04:36 1.0M
20260501T00Z_MSC_GDPS_AirTemp_IsbL-0800_LatLon0.15_PT150H.grib2 2026-05-01 04:36 1.1M
20260501T00Z_MSC_GDPS_AirTemp_IsbL-0850_LatLon0.15_PT150H.grib2 2026-05-01 04:36 1.1M
20260501T00Z_MSC_GDPS_AirTemp_IsbL-0875_LatLon0.15_PT150H.grib2 2026-05-01 04:36 1.2M
20260501T00Z_MSC_GDPS_AirTemp_IsbL-0900_LatLon0.15_PT150H.grib2 2026-05-01 04:36 1.2M
20260501T00Z_MSC_GDPS_AirTemp_IsbL-0925_LatLon0.15_PT150H.grib2 2026-05-01 04:36 1.1M
20260501T00Z_MSC_GDPS_AirTemp_IsbL-0950_LatLon0.15_PT150H.grib2 2026-05-01 04:36 1.1M
20260501T00Z_MSC_GDPS_AirTemp_IsbL-0970_LatLon0.15_PT150H.grib2 2026-05-01 04:36 1.1M
20260501T00Z_MSC_GDPS_AirTemp_IsbL-0985_LatLon0.15_PT150H.grib2 2026-05-01 04:36 1.1M
20260501T00Z_MSC_GDPS_AirTemp_IsbL-1000_LatLon0.15_PT150H.grib2 2026-05-01 04:36 1.1M
20260501T00Z_MSC_GDPS_AirTemp_IsbL-1015_LatLon0.15_PT150H.grib2 2026-05-01 04:36 1.1M
20260501T00Z_MSC_GDPS_Albedo_Sfc_LatLon0.15_PT150H.grib2 2026-05-01 04:36 244K
20260501T00Z_MSC_GDPS_CAPE_Sfc_LatLon0.15_PT150H.grib2 2026-05-01 04:36 3.9M
20260501T00Z_MSC_GDPS_CIN_Sfc_LatLon0.15_PT150H.grib2 2026-05-01 04:36 2.9M
20260501T00Z_MSC_GDPS_CloudWater_EAtm_LatLon0.15_PT150H.grib2 2026-05-01 04:36 537K
20260501T00Z_MSC_GDPS_ConvectivePrecip-Accum_Sfc_LatLon0.15_PT150H.grib2 2026-05-01 04:36 3.7M
20260501T00Z_MSC_GDPS_DewPointDepression_AGL-2m_LatLon0.15_PT150H.grib2 2026-05-01 04:36 764K
20260501T00Z_MSC_GDPS_DewPointDepression_IsbL-0010_LatLon0.15_PT150H.grib2 2026-05-01 04:36 71K
20260501T00Z_MSC_GDPS_DewPointDepression_IsbL-0020_LatLon0.15_PT150H.grib2 2026-05-01 04:36 66K
20260501T00Z_MSC_GDPS_DewPointDepression_IsbL-0030_LatLon0.15_PT150H.grib2 2026-05-01 04:36 87K
20260501T00Z_MSC_GDPS_DewPointDepression_IsbL-0050_LatLon0.15_PT150H.grib2 2026-05-01 04:36 378K
20260501T00Z_MSC_GDPS_DewPointDepression_IsbL-0100_LatLon0.15_PT150H.grib2 2026-05-01 04:36 394K
20260501T00Z_MSC_GDPS_DewPointDepression_IsbL-0150_LatLon0.15_PT150H.grib2 2026-05-01 04:36 485K
20260501T00Z_MSC_GDPS_DewPointDepression_IsbL-0175_LatLon0.15_PT150H.grib2 2026-05-01 04:36 584K
20260501T00Z_MSC_GDPS_DewPointDepression_IsbL-0200_LatLon0.15_PT150H.grib2 2026-05-01 04:36 688K
20260501T00Z_MSC_GDPS_DewPointDepression_IsbL-0225_LatLon0.15_PT150H.grib2 2026-05-01 04:36 761K
20260501T00Z_MSC_GDPS_DewPointDepression_IsbL-0250_LatLon0.15_PT150H.grib2 2026-05-01 04:36 856K
20260501T00Z_MSC_GDPS_DewPointDepression_IsbL-0275_LatLon0.15_PT150H.grib2 2026-05-01 04:36 880K
20260501T00Z_MSC_GDPS_DewPointDepression_IsbL-0300_LatLon0.15_PT150H.grib2 2026-05-01 04:36 925K
20260501T00Z_MSC_GDPS_DewPointDepression_IsbL-0350_LatLon0.15_PT150H.grib2 2026-05-01 04:36 960K
20260501T00Z_MSC_GDPS_DewPointDepression_IsbL-0400_LatLon0.15_PT150H.grib2 2026-05-01 04:36 1.0M
20260501T00Z_MSC_GDPS_DewPointDepression_IsbL-0450_LatLon0.15_PT150H.grib2 2026-05-01 04:36 1.0M
20260501T00Z_MSC_GDPS_DewPointDepression_IsbL-0500_LatLon0.15_PT150H.grib2 2026-05-01 04:36 1.0M
20260501T00Z_MSC_GDPS_DewPointDepression_IsbL-0550_LatLon0.15_PT150H.grib2 2026-05-01 04:36 1.0M
20260501T00Z_MSC_GDPS_DewPointDepression_IsbL-0600_LatLon0.15_PT150H.grib2 2026-05-01 04:36 1.0M
20260501T00Z_MSC_GDPS_DewPointDepression_IsbL-0650_LatLon0.15_PT150H.grib2 2026-05-01 04:36 1.0M
20260501T00Z_MSC_GDPS_DewPointDepression_IsbL-0700_LatLon0.15_PT150H.grib2 2026-05-01 04:36 1.1M
20260501T00Z_MSC_GDPS_DewPointDepression_IsbL-0750_LatLon0.15_PT150H.grib2 2026-05-01 04:36 1.1M
20260501T00Z_MSC_GDPS_DewPointDepression_IsbL-0800_LatLon0.15_PT150H.grib2 2026-05-01 04:36 1.2M
20260501T00Z_MSC_GDPS_DewPointDepression_IsbL-0850_LatLon0.15_PT150H.grib2 2026-05-01 04:36 1.2M
20260501T00Z_MSC_GDPS_DewPointDepression_IsbL-0875_LatLon0.15_PT150H.grib2 2026-05-01 04:36 1.1M
20260501T00Z_MSC_GDPS_DewPointDepression_IsbL-0900_LatLon0.15_PT150H.grib2 2026-05-01 04:36 1.1M
20260501T00Z_MSC_GDPS_DewPointDepression_IsbL-0925_LatLon0.15_PT150H.grib2 2026-05-01 04:36 1.0M
20260501T00Z_MSC_GDPS_DewPointDepression_IsbL-0950_LatLon0.15_PT150H.grib2 2026-05-01 04:36 1.0M
20260501T00Z_MSC_GDPS_DewPointDepression_IsbL-0970_LatLon0.15_PT150H.grib2 2026-05-01 04:36 1.0M
20260501T00Z_MSC_GDPS_DewPointDepression_IsbL-0985_LatLon0.15_PT150H.grib2 2026-05-01 04:36 1.0M
20260501T00Z_MSC_GDPS_DewPointDepression_IsbL-1000_LatLon0.15_PT150H.grib2 2026-05-01 04:36 971K
20260501T00Z_MSC_GDPS_DewPointDepression_IsbL-1015_LatLon0.15_PT150H.grib2 2026-05-01 04:36 917K
20260501T00Z_MSC_GDPS_DewPoint_AGL-2m_LatLon0.15_PT150H.grib2 2026-05-01 04:36 606K
20260501T00Z_MSC_GDPS_DownwardLongwaveRadiationFlux-Accum_Sfc_LatLon0.15_PT150H.grib2 2026-05-01 04:36 616K
20260501T00Z_MSC_GDPS_DownwardShortwaveRadiationFlux-Accum_NTAtm_LatLon0.15_PT150H.grib2 2026-05-01 04:36 188K
20260501T00Z_MSC_GDPS_DownwardShortwaveRadiationFlux-Accum_Sfc_LatLon0.15_PT150H.grib2 2026-05-01 04:36 799K
20260501T00Z_MSC_GDPS_FreezingRain-Accum12h_Sfc_LatLon0.15_PT150H.grib2 2026-05-01 04:36 89K
20260501T00Z_MSC_GDPS_FreezingRain-Accum24h_Sfc_LatLon0.15_PT150H.grib2 2026-05-01 04:36 142K
20260501T00Z_MSC_GDPS_FreezingRain-Accum3h_Sfc_LatLon0.15_PT150H.grib2 2026-05-01 04:36 41K
20260501T00Z_MSC_GDPS_FreezingRain-Accum6h_Sfc_LatLon0.15_PT150H.grib2 2026-05-01 04:36 56K
20260501T00Z_MSC_GDPS_FreezingRain-Accum_Sfc_LatLon0.15_PT150H.grib2 2026-05-01 04:36 402K
20260501T00Z_MSC_GDPS_GeopotentialHeight_IsbL-0001_LatLon0.15_PT150H.grib2 2026-05-01 04:36 428K
20260501T00Z_MSC_GDPS_GeopotentialHeight_IsbL-0005_LatLon0.15_PT150H.grib2 2026-05-01 04:36 483K
20260501T00Z_MSC_GDPS_GeopotentialHeight_IsbL-0010_LatLon0.15_PT150H.grib2 2026-05-01 04:36 475K
20260501T00Z_MSC_GDPS_GeopotentialHeight_IsbL-0020_LatLon0.15_PT150H.grib2 2026-05-01 04:36 415K
20260501T00Z_MSC_GDPS_GeopotentialHeight_IsbL-0030_LatLon0.15_PT150H.grib2 2026-05-01 04:36 420K
20260501T00Z_MSC_GDPS_GeopotentialHeight_IsbL-0050_LatLon0.15_PT150H.grib2 2026-05-01 04:36 570K
20260501T00Z_MSC_GDPS_GeopotentialHeight_IsbL-0100_LatLon0.15_PT150H.grib2 2026-05-01 04:36 600K
20260501T00Z_MSC_GDPS_GeopotentialHeight_IsbL-0150_LatLon0.15_PT150H.grib2 2026-05-01 04:36 619K
20260501T00Z_MSC_GDPS_GeopotentialHeight_IsbL-0175_LatLon0.15_PT150H.grib2 2026-05-01 04:36 623K
20260501T00Z_MSC_GDPS_GeopotentialHeight_IsbL-0200_LatLon0.15_PT150H.grib2 2026-05-01 04:36 629K
20260501T00Z_MSC_GDPS_GeopotentialHeight_IsbL-0225_LatLon0.15_PT150H.grib2 2026-05-01 04:36 633K
20260501T00Z_MSC_GDPS_GeopotentialHeight_IsbL-0250_LatLon0.15_PT150H.grib2 2026-05-01 04:36 632K
20260501T00Z_MSC_GDPS_GeopotentialHeight_IsbL-0275_LatLon0.15_PT150H.grib2 2026-05-01 04:36 636K
20260501T00Z_MSC_GDPS_GeopotentialHeight_IsbL-0300_LatLon0.15_PT150H.grib2 2026-05-01 04:36 636K
20260501T00Z_MSC_GDPS_GeopotentialHeight_IsbL-0350_LatLon0.15_PT150H.grib2 2026-05-01 04:36 624K
20260501T00Z_MSC_GDPS_GeopotentialHeight_IsbL-0400_LatLon0.15_PT150H.grib2 2026-05-01 04:36 617K
20260501T00Z_MSC_GDPS_GeopotentialHeight_IsbL-0450_LatLon0.15_PT150H.grib2 2026-05-01 04:36 608K
20260501T00Z_MSC_GDPS_GeopotentialHeight_IsbL-0500_LatLon0.15_PT150H.grib2 2026-05-01 04:36 530K
20260501T00Z_MSC_GDPS_GeopotentialHeight_IsbL-0550_LatLon0.15_PT150H.grib2 2026-05-01 04:36 524K
20260501T00Z_MSC_GDPS_GeopotentialHeight_IsbL-0600_LatLon0.15_PT150H.grib2 2026-05-01 04:36 519K
20260501T00Z_MSC_GDPS_GeopotentialHeight_IsbL-0650_LatLon0.15_PT150H.grib2 2026-05-01 04:36 685K
20260501T00Z_MSC_GDPS_GeopotentialHeight_IsbL-0700_LatLon0.15_PT150H.grib2 2026-05-01 04:36 683K
20260501T00Z_MSC_GDPS_GeopotentialHeight_IsbL-0750_LatLon0.15_PT150H.grib2 2026-05-01 04:36 687K
20260501T00Z_MSC_GDPS_GeopotentialHeight_IsbL-0800_LatLon0.15_PT150H.grib2 2026-05-01 04:36 702K
20260501T00Z_MSC_GDPS_GeopotentialHeight_IsbL-0850_LatLon0.15_PT150H.grib2 2026-05-01 04:36 710K
20260501T00Z_MSC_GDPS_GeopotentialHeight_IsbL-0875_LatLon0.15_PT150H.grib2 2026-05-01 04:36 716K
20260501T00Z_MSC_GDPS_GeopotentialHeight_IsbL-0900_LatLon0.15_PT150H.grib2 2026-05-01 04:36 725K
20260501T00Z_MSC_GDPS_GeopotentialHeight_IsbL-0925_LatLon0.15_PT150H.grib2 2026-05-01 04:36 729K
20260501T00Z_MSC_GDPS_GeopotentialHeight_IsbL-0950_LatLon0.15_PT150H.grib2 2026-05-01 04:36 738K
20260501T00Z_MSC_GDPS_GeopotentialHeight_IsbL-0970_LatLon0.15_PT150H.grib2 2026-05-01 04:36 750K
20260501T00Z_MSC_GDPS_GeopotentialHeight_IsbL-0985_LatLon0.15_PT150H.grib2 2026-05-01 04:36 765K
20260501T00Z_MSC_GDPS_GeopotentialHeight_IsbL-1000_LatLon0.15_PT150H.grib2 2026-05-01 04:36 785K
20260501T00Z_MSC_GDPS_GeopotentialHeight_IsbL-1015_LatLon0.15_PT150H.grib2 2026-05-01 04:36 805K
20260501T00Z_MSC_GDPS_Humidex_Sfc_LatLon0.15_PT150H.grib2 2026-05-01 04:36 5.3M
20260501T00Z_MSC_GDPS_IcePellets-Accum12h_Sfc_LatLon0.15_PT150H.grib2 2026-05-01 04:36 10K
20260501T00Z_MSC_GDPS_IcePellets-Accum24h_Sfc_LatLon0.15_PT150H.grib2 2026-05-01 04:36 23K
20260501T00Z_MSC_GDPS_IcePellets-Accum3h_Sfc_LatLon0.15_PT150H.grib2 2026-05-01 04:36 4.2K
20260501T00Z_MSC_GDPS_IcePellets-Accum6h_Sfc_LatLon0.15_PT150H.grib2 2026-05-01 04:36 6.9K
20260501T00Z_MSC_GDPS_IcePellets-Accum_Sfc_LatLon0.15_PT150H.grib2 2026-05-01 04:36 124K
20260501T00Z_MSC_GDPS_KIndex_Sfc_LatLon0.15_PT150H.grib2 2026-05-01 04:36 6.5M
20260501T00Z_MSC_GDPS_LatentHeatNetFlux_Sfc_LatLon0.15_PT150H.grib2 2026-05-01 04:36 543K
20260501T00Z_MSC_GDPS_LiftedIndex-MU-VT_IsbL-0500_LatLon0.15_PT150H.grib2 2026-05-01 04:36 5.4M
20260501T00Z_MSC_GDPS_NetLongwaveRadiationFlux-Accum_Sfc_LatLon0.15_PT150H.grib2 2026-05-01 04:36 1.1M
20260501T00Z_MSC_GDPS_NetShortwaveRadiationFlux-Accum_Sfc_LatLon0.15_PT150H.grib2 2026-05-01 04:36 1.0M
20260501T00Z_MSC_GDPS_O3MixingRatio_Sfc_LatLon0.15_PT150H.grib2 2026-05-01 04:51 1.9M
20260501T00Z_MSC_GDPS_O3_EAtm_LatLon0.15_PT150H.grib2 2026-05-01 04:51 2.4M
20260501T00Z_MSC_GDPS_PlanetaryBoundaryLayerHeight_Sfc_LatLon0.15_PT150H.grib2 2026-05-01 04:36 2.5M
20260501T00Z_MSC_GDPS_Precip-Accum12h_Sfc_LatLon0.15_PT150H.grib2 2026-05-01 04:36 4.0M
20260501T00Z_MSC_GDPS_Precip-Accum24h_Sfc_LatLon0.15_PT150H.grib2 2026-05-01 04:36 4.3M
20260501T00Z_MSC_GDPS_Precip-Accum3h_Sfc_LatLon0.15_PT150H.grib2 2026-05-01 04:36 3.5M
20260501T00Z_MSC_GDPS_Precip-Accum6h_Sfc_LatLon0.15_PT150H.grib2 2026-05-01 04:36 3.5M
20260501T00Z_MSC_GDPS_Precip-Accum_Sfc_LatLon0.15_PT150H.grib2 2026-05-01 04:36 4.9M
20260501T00Z_MSC_GDPS_PrecipRate_Sfc_LatLon0.15_PT150H.grib2 2026-05-01 04:36 3.1M
20260501T00Z_MSC_GDPS_PrecipType-Instant_Sfc_LatLon0.15_PT150H.grib2 2026-05-01 04:36 1.6M
20260501T00Z_MSC_GDPS_Pressure_MSL_LatLon0.15_PT150H.grib2 2026-05-01 04:36 718K
20260501T00Z_MSC_GDPS_Pressure_PVU-1.5_LatLon0.15_PT150H.grib2 2026-05-01 04:36 5.8M
20260501T00Z_MSC_GDPS_Pressure_PVU-1_LatLon0.15_PT150H.grib2 2026-05-01 04:36 6.0M
20260501T00Z_MSC_GDPS_Pressure_PVU-2_LatLon0.15_PT150H.grib2 2026-05-01 04:36 5.6M
20260501T00Z_MSC_GDPS_Pressure_Sfc_LatLon0.15_PT150H.grib2 2026-05-01 04:36 1.1M
20260501T00Z_MSC_GDPS_RadiativeTemp_Sfc_LatLon0.15_PT150H.grib2 2026-05-01 04:36 671K
20260501T00Z_MSC_GDPS_Rain-Accum12h_Sfc_LatLon0.15_PT150H.grib2 2026-05-01 04:36 2.7M
20260501T00Z_MSC_GDPS_Rain-Accum24h_Sfc_LatLon0.15_PT150H.grib2 2026-05-01 04:36 3.0M
20260501T00Z_MSC_GDPS_Rain-Accum3h_Sfc_LatLon0.15_PT150H.grib2 2026-05-01 04:36 1.8M
20260501T00Z_MSC_GDPS_Rain-Accum6h_Sfc_LatLon0.15_PT150H.grib2 2026-05-01 04:36 2.3M
20260501T00Z_MSC_GDPS_Rain-Accum_Sfc_LatLon0.15_PT150H.grib2 2026-05-01 04:36 3.9M
20260501T00Z_MSC_GDPS_RelativeHumidity_AGL-2m_LatLon0.15_PT150H.grib2 2026-05-01 04:36 1.0M
20260501T00Z_MSC_GDPS_RelativeHumidity_IsbL-0010_LatLon0.15_PT150H.grib2 2026-05-01 04:36 195K
20260501T00Z_MSC_GDPS_RelativeHumidity_IsbL-0020_LatLon0.15_PT150H.grib2 2026-05-01 04:36 159K
20260501T00Z_MSC_GDPS_RelativeHumidity_IsbL-0030_LatLon0.15_PT150H.grib2 2026-05-01 04:36 262K
20260501T00Z_MSC_GDPS_RelativeHumidity_IsbL-0050_LatLon0.15_PT150H.grib2 2026-05-01 04:36 510K
20260501T00Z_MSC_GDPS_RelativeHumidity_IsbL-0100_LatLon0.15_PT150H.grib2 2026-05-01 04:36 347K
20260501T00Z_MSC_GDPS_RelativeHumidity_IsbL-0150_LatLon0.15_PT150H.grib2 2026-05-01 04:36 671K
20260501T00Z_MSC_GDPS_RelativeHumidity_IsbL-0175_LatLon0.15_PT150H.grib2 2026-05-01 04:36 796K
20260501T00Z_MSC_GDPS_RelativeHumidity_IsbL-0200_LatLon0.15_PT150H.grib2 2026-05-01 04:36 706K
20260501T00Z_MSC_GDPS_RelativeHumidity_IsbL-0225_LatLon0.15_PT150H.grib2 2026-05-01 04:36 786K
20260501T00Z_MSC_GDPS_RelativeHumidity_IsbL-0250_LatLon0.15_PT150H.grib2 2026-05-01 04:36 859K
20260501T00Z_MSC_GDPS_RelativeHumidity_IsbL-0275_LatLon0.15_PT150H.grib2 2026-05-01 04:36 882K
20260501T00Z_MSC_GDPS_RelativeHumidity_IsbL-0300_LatLon0.15_PT150H.grib2 2026-05-01 04:36 927K
20260501T00Z_MSC_GDPS_RelativeHumidity_IsbL-0350_LatLon0.15_PT150H.grib2 2026-05-01 04:36 949K
20260501T00Z_MSC_GDPS_RelativeHumidity_IsbL-0400_LatLon0.15_PT150H.grib2 2026-05-01 04:36 1.0M
20260501T00Z_MSC_GDPS_RelativeHumidity_IsbL-0450_LatLon0.15_PT150H.grib2 2026-05-01 04:36 1.0M
20260501T00Z_MSC_GDPS_RelativeHumidity_IsbL-0500_LatLon0.15_PT150H.grib2 2026-05-01 04:36 1.0M
20260501T00Z_MSC_GDPS_RelativeHumidity_IsbL-0550_LatLon0.15_PT150H.grib2 2026-05-01 04:36 1.1M
20260501T00Z_MSC_GDPS_RelativeHumidity_IsbL-0600_LatLon0.15_PT150H.grib2 2026-05-01 04:36 1.1M
20260501T00Z_MSC_GDPS_RelativeHumidity_IsbL-0650_LatLon0.15_PT150H.grib2 2026-05-01 04:36 1.1M
20260501T00Z_MSC_GDPS_RelativeHumidity_IsbL-0700_LatLon0.15_PT150H.grib2 2026-05-01 04:36 1.1M
20260501T00Z_MSC_GDPS_RelativeHumidity_IsbL-0750_LatLon0.15_PT150H.grib2 2026-05-01 04:36 1.1M
20260501T00Z_MSC_GDPS_RelativeHumidity_IsbL-0800_LatLon0.15_PT150H.grib2 2026-05-01 04:36 1.2M
20260501T00Z_MSC_GDPS_RelativeHumidity_IsbL-0850_LatLon0.15_PT150H.grib2 2026-05-01 04:36 1.3M
20260501T00Z_MSC_GDPS_RelativeHumidity_IsbL-0875_LatLon0.15_PT150H.grib2 2026-05-01 04:36 1.3M
20260501T00Z_MSC_GDPS_RelativeHumidity_IsbL-0900_LatLon0.15_PT150H.grib2 2026-05-01 04:36 1.2M
20260501T00Z_MSC_GDPS_RelativeHumidity_IsbL-0925_LatLon0.15_PT150H.grib2 2026-05-01 04:36 1.2M
20260501T00Z_MSC_GDPS_RelativeHumidity_IsbL-0950_LatLon0.15_PT150H.grib2 2026-05-01 04:36 1.2M
20260501T00Z_MSC_GDPS_RelativeHumidity_IsbL-0970_LatLon0.15_PT150H.grib2 2026-05-01 04:36 1.2M
20260501T00Z_MSC_GDPS_RelativeHumidity_IsbL-0985_LatLon0.15_PT150H.grib2 2026-05-01 04:36 1.1M
20260501T00Z_MSC_GDPS_RelativeHumidity_IsbL-1000_LatLon0.15_PT150H.grib2 2026-05-01 04:36 1.2M
20260501T00Z_MSC_GDPS_RelativeHumidity_IsbL-1015_LatLon0.15_PT150H.grib2 2026-05-01 04:36 1.0M
20260501T00Z_MSC_GDPS_RelativeVorticity_IsbL-0200_LatLon0.15_PT150H.grib2 2026-05-01 04:36 1.5M
20260501T00Z_MSC_GDPS_RelativeVorticity_IsbL-0250_LatLon0.15_PT150H.grib2 2026-05-01 04:36 1.3M
20260501T00Z_MSC_GDPS_RelativeVorticity_IsbL-0500_LatLon0.15_PT150H.grib2 2026-05-01 04:36 1.4M
20260501T00Z_MSC_GDPS_RelativeVorticity_IsbL-0700_LatLon0.15_PT150H.grib2 2026-05-01 04:36 1.6M
20260501T00Z_MSC_GDPS_RelativeVorticity_IsbL-0850_LatLon0.15_PT150H.grib2 2026-05-01 04:36 1.6M
20260501T00Z_MSC_GDPS_Runoff-Accum_Sfc_LatLon0.15_PT150H.grib2 2026-05-01 04:36 159K
20260501T00Z_MSC_GDPS_SensibleHeatNetFlux_Sfc_LatLon0.15_PT150H.grib2 2026-05-01 04:36 489K
20260501T00Z_MSC_GDPS_ShowalterIndex_IsbL-0500_LatLon0.15_PT150H.grib2 2026-05-01 04:36 6.2M
20260501T00Z_MSC_GDPS_Snow-Accum12h_Sfc_LatLon0.15_PT150H.grib2 2026-05-01 04:36 1.4M
20260501T00Z_MSC_GDPS_Snow-Accum24h_Sfc_LatLon0.15_PT150H.grib2 2026-05-01 04:36 1.6M
20260501T00Z_MSC_GDPS_Snow-Accum3h_Sfc_LatLon0.15_PT150H.grib2 2026-05-01 04:36 1.3M
20260501T00Z_MSC_GDPS_Snow-Accum6h_Sfc_LatLon0.15_PT150H.grib2 2026-05-01 04:36 1.4M
20260501T00Z_MSC_GDPS_Snow-Accum_Sfc_LatLon0.15_PT150H.grib2 2026-05-01 04:36 2.0M
20260501T00Z_MSC_GDPS_SnowDensity_Sfc_LatLon0.15_PT150H.grib2 2026-05-01 04:36 259K
20260501T00Z_MSC_GDPS_SnowDepth_Sfc_LatLon0.15_PT150H.grib2 2026-05-01 04:36 1.7M
20260501T00Z_MSC_GDPS_SoilTemp_DBS-0to10cm_LatLon0.15_PT150H.grib2 2026-05-01 04:36 514K
20260501T00Z_MSC_GDPS_SoilTemp_Sfc_LatLon0.15_PT150H.grib2 2026-05-01 04:36 584K
20260501T00Z_MSC_GDPS_SoilVolumetricIceContent_Sfc_LatLon0.15_PT150H.grib2 2026-05-01 04:36 186K
20260501T00Z_MSC_GDPS_SoilVolumetricWaterContent_DBS-0to10cm_LatLon0.15_PT150H.grib2 2026-05-01 04:36 595K
20260501T00Z_MSC_GDPS_SoilVolumetricWaterContent_DBS-0to1cm_LatLon0.15_PT150H.grib2 2026-05-01 04:36 652K
20260501T00Z_MSC_GDPS_SpecificHumidity_AGL-120m_LatLon0.15_PT150H.grib2 2026-05-01 04:36 1.1M
20260501T00Z_MSC_GDPS_SpecificHumidity_AGL-2m_LatLon0.15_PT150H.grib2 2026-05-01 04:36 1.2M
20260501T00Z_MSC_GDPS_SpecificHumidity_AGL-40m_LatLon0.15_PT150H.grib2 2026-05-01 04:36 1.1M
20260501T00Z_MSC_GDPS_SpecificHumidity_AGL-80m_LatLon0.15_PT150H.grib2 2026-05-01 04:36 1.1M
20260501T00Z_MSC_GDPS_SpecificHumidity_IsbL-0001_LatLon0.15_PT150H.grib2 2026-05-01 04:36 1.2M
20260501T00Z_MSC_GDPS_SpecificHumidity_IsbL-0005_LatLon0.15_PT150H.grib2 2026-05-01 04:36 1.1M
20260501T00Z_MSC_GDPS_SpecificHumidity_IsbL-0010_LatLon0.15_PT150H.grib2 2026-05-01 04:36 1.2M
20260501T00Z_MSC_GDPS_SpecificHumidity_IsbL-0020_LatLon0.15_PT150H.grib2 2026-05-01 04:36 1.2M
20260501T00Z_MSC_GDPS_SpecificHumidity_IsbL-0030_LatLon0.15_PT150H.grib2 2026-05-01 04:36 1.5M
20260501T00Z_MSC_GDPS_SpecificHumidity_IsbL-0050_LatLon0.15_PT150H.grib2 2026-05-01 04:36 1.5M
20260501T00Z_MSC_GDPS_SpecificHumidity_IsbL-0100_LatLon0.15_PT150H.grib2 2026-05-01 04:36 1.3M
20260501T00Z_MSC_GDPS_SpecificHumidity_IsbL-0150_LatLon0.15_PT150H.grib2 2026-05-01 04:36 1.2M
20260501T00Z_MSC_GDPS_SpecificHumidity_IsbL-0175_LatLon0.15_PT150H.grib2 2026-05-01 04:36 1.3M
20260501T00Z_MSC_GDPS_SpecificHumidity_IsbL-0200_LatLon0.15_PT150H.grib2 2026-05-01 04:36 1.3M
20260501T00Z_MSC_GDPS_SpecificHumidity_IsbL-0225_LatLon0.15_PT150H.grib2 2026-05-01 04:36 1.3M
20260501T00Z_MSC_GDPS_SpecificHumidity_IsbL-0250_LatLon0.15_PT150H.grib2 2026-05-01 04:36 1.4M
20260501T00Z_MSC_GDPS_SpecificHumidity_IsbL-0275_LatLon0.15_PT150H.grib2 2026-05-01 04:36 1.3M
20260501T00Z_MSC_GDPS_SpecificHumidity_IsbL-0300_LatLon0.15_PT150H.grib2 2026-05-01 04:36 1.2M
20260501T00Z_MSC_GDPS_SpecificHumidity_IsbL-0350_LatLon0.15_PT150H.grib2 2026-05-01 04:36 1.2M
20260501T00Z_MSC_GDPS_SpecificHumidity_IsbL-0400_LatLon0.15_PT150H.grib2 2026-05-01 04:36 1.5M
20260501T00Z_MSC_GDPS_SpecificHumidity_IsbL-0450_LatLon0.15_PT150H.grib2 2026-05-01 04:36 1.3M
20260501T00Z_MSC_GDPS_SpecificHumidity_IsbL-0500_LatLon0.15_PT150H.grib2 2026-05-01 04:36 1.4M
20260501T00Z_MSC_GDPS_SpecificHumidity_IsbL-0550_LatLon0.15_PT150H.grib2 2026-05-01 04:36 1.6M
20260501T00Z_MSC_GDPS_SpecificHumidity_IsbL-0600_LatLon0.15_PT150H.grib2 2026-05-01 04:36 1.7M
20260501T00Z_MSC_GDPS_SpecificHumidity_IsbL-0650_LatLon0.15_PT150H.grib2 2026-05-01 04:36 1.5M
20260501T00Z_MSC_GDPS_SpecificHumidity_IsbL-0700_LatLon0.15_PT150H.grib2 2026-05-01 04:36 1.6M
20260501T00Z_MSC_GDPS_SpecificHumidity_IsbL-0750_LatLon0.15_PT150H.grib2 2026-05-01 04:36 1.7M
20260501T00Z_MSC_GDPS_SpecificHumidity_IsbL-0800_LatLon0.15_PT150H.grib2 2026-05-01 04:36 1.9M
20260501T00Z_MSC_GDPS_SpecificHumidity_IsbL-0850_LatLon0.15_PT150H.grib2 2026-05-01 04:36 1.9M
20260501T00Z_MSC_GDPS_SpecificHumidity_IsbL-0875_LatLon0.15_PT150H.grib2 2026-05-01 04:36 2.0M
20260501T00Z_MSC_GDPS_SpecificHumidity_IsbL-0900_LatLon0.15_PT150H.grib2 2026-05-01 04:36 1.6M
20260501T00Z_MSC_GDPS_SpecificHumidity_IsbL-0925_LatLon0.15_PT150H.grib2 2026-05-01 04:36 1.6M
20260501T00Z_MSC_GDPS_SpecificHumidity_IsbL-0950_LatLon0.15_PT150H.grib2 2026-05-01 04:36 1.6M
20260501T00Z_MSC_GDPS_SpecificHumidity_IsbL-0970_LatLon0.15_PT150H.grib2 2026-05-01 04:36 1.5M
20260501T00Z_MSC_GDPS_SpecificHumidity_IsbL-0985_LatLon0.15_PT150H.grib2 2026-05-01 04:36 1.5M
20260501T00Z_MSC_GDPS_SpecificHumidity_IsbL-1000_LatLon0.15_PT150H.grib2 2026-05-01 04:36 1.5M
20260501T00Z_MSC_GDPS_SpecificHumidity_IsbL-1015_LatLon0.15_PT150H.grib2 2026-05-01 04:36 1.5M
20260501T00Z_MSC_GDPS_SpecificHumidity_Sfc_LatLon0.15_PT150H.grib2 2026-05-01 04:36 677K
20260501T00Z_MSC_GDPS_Thickness_IsbL-0850to0700_LatLon0.15_PT150H.grib2 2026-05-01 04:36 468K
20260501T00Z_MSC_GDPS_Thickness_IsbL-1000to0500_LatLon0.15_PT150H.grib2 2026-05-01 04:36 369K
20260501T00Z_MSC_GDPS_Thickness_IsbL-1000to0850_LatLon0.15_PT150H.grib2 2026-05-01 04:36 489K
20260501T00Z_MSC_GDPS_TotalCloudCover_Sfc_LatLon0.15_PT150H.grib2 2026-05-01 04:36 823K
20260501T00Z_MSC_GDPS_TotalTotalsIndex_Sfc_LatLon0.15_PT150H.grib2 2026-05-01 04:36 6.2M
20260501T00Z_MSC_GDPS_UVIndex-ClearSky_Sfc_LatLon0.15_PT150H.grib2 2026-05-01 04:51 1.1M
20260501T00Z_MSC_GDPS_UVIndex_Sfc_LatLon0.15_PT150H.grib2 2026-05-01 04:51 1.5M
20260501T00Z_MSC_GDPS_UpwardLongwaveRadiationFlux_NTAtm_LatLon0.15_PT150H.grib2 2026-05-01 04:36 830K
20260501T00Z_MSC_GDPS_VerticalVelocity_IsbL-0200_LatLon0.15_PT150H.grib2 2026-05-01 04:36 1.2M
20260501T00Z_MSC_GDPS_VerticalVelocity_IsbL-0250_LatLon0.15_PT150H.grib2 2026-05-01 04:36 1.1M
20260501T00Z_MSC_GDPS_VerticalVelocity_IsbL-0500_LatLon0.15_PT150H.grib2 2026-05-01 04:36 1.0M
20260501T00Z_MSC_GDPS_VerticalVelocity_IsbL-0600_LatLon0.15_PT150H.grib2 2026-05-01 04:36 1.1M
20260501T00Z_MSC_GDPS_VerticalVelocity_IsbL-0700_LatLon0.15_PT150H.grib2 2026-05-01 04:36 1.1M
20260501T00Z_MSC_GDPS_VerticalVelocity_IsbL-0850_LatLon0.15_PT150H.grib2 2026-05-01 04:36 1.6M
20260501T00Z_MSC_GDPS_WindChill_Sfc_LatLon0.15_PT150H.grib2 2026-05-01 04:36 5.3M
20260501T00Z_MSC_GDPS_WindDir_AGL-10m_LatLon0.15_PT150H.grib2 2026-05-01 04:36 1.3M
20260501T00Z_MSC_GDPS_WindDir_AGL-120m_LatLon0.15_PT150H.grib2 2026-05-01 04:36 1.3M
20260501T00Z_MSC_GDPS_WindDir_AGL-40m_LatLon0.15_PT150H.grib2 2026-05-01 04:36 1.4M
20260501T00Z_MSC_GDPS_WindDir_AGL-80m_LatLon0.15_PT150H.grib2 2026-05-01 04:36 1.3M
20260501T00Z_MSC_GDPS_WindDir_IsbL-0001_LatLon0.15_PT150H.grib2 2026-05-01 04:36 677K
20260501T00Z_MSC_GDPS_WindDir_IsbL-0005_LatLon0.15_PT150H.grib2 2026-05-01 04:36 811K
20260501T00Z_MSC_GDPS_WindDir_IsbL-0010_LatLon0.15_PT150H.grib2 2026-05-01 04:36 828K
20260501T00Z_MSC_GDPS_WindDir_IsbL-0020_LatLon0.15_PT150H.grib2 2026-05-01 04:36 929K
20260501T00Z_MSC_GDPS_WindDir_IsbL-0030_LatLon0.15_PT150H.grib2 2026-05-01 04:36 932K
20260501T00Z_MSC_GDPS_WindDir_IsbL-0050_LatLon0.15_PT150H.grib2 2026-05-01 04:36 929K
20260501T00Z_MSC_GDPS_WindDir_IsbL-0100_LatLon0.15_PT150H.grib2 2026-05-01 04:36 1.0M
20260501T00Z_MSC_GDPS_WindDir_IsbL-0150_LatLon0.15_PT150H.grib2 2026-05-01 04:36 1.0M
20260501T00Z_MSC_GDPS_WindDir_IsbL-0175_LatLon0.15_PT150H.grib2 2026-05-01 04:36 1.0M
20260501T00Z_MSC_GDPS_WindDir_IsbL-0200_LatLon0.15_PT150H.grib2 2026-05-01 04:36 1.1M
20260501T00Z_MSC_GDPS_WindDir_IsbL-0225_LatLon0.15_PT150H.grib2 2026-05-01 04:36 1.1M
20260501T00Z_MSC_GDPS_WindDir_IsbL-0250_LatLon0.15_PT150H.grib2 2026-05-01 04:36 1.1M
20260501T00Z_MSC_GDPS_WindDir_IsbL-0275_LatLon0.15_PT150H.grib2 2026-05-01 04:36 1.2M
20260501T00Z_MSC_GDPS_WindDir_IsbL-0300_LatLon0.15_PT150H.grib2 2026-05-01 04:36 1.2M
20260501T00Z_MSC_GDPS_WindDir_IsbL-0350_LatLon0.15_PT150H.grib2 2026-05-01 04:36 1.2M
20260501T00Z_MSC_GDPS_WindDir_IsbL-0400_LatLon0.15_PT150H.grib2 2026-05-01 04:36 1.3M
20260501T00Z_MSC_GDPS_WindDir_IsbL-0450_LatLon0.15_PT150H.grib2 2026-05-01 04:36 1.3M
20260501T00Z_MSC_GDPS_WindDir_IsbL-0500_LatLon0.15_PT150H.grib2 2026-05-01 04:36 1.4M
20260501T00Z_MSC_GDPS_WindDir_IsbL-0550_LatLon0.15_PT150H.grib2 2026-05-01 04:36 1.4M
20260501T00Z_MSC_GDPS_WindDir_IsbL-0600_LatLon0.15_PT150H.grib2 2026-05-01 04:36 1.4M
20260501T00Z_MSC_GDPS_WindDir_IsbL-0650_LatLon0.15_PT150H.grib2 2026-05-01 04:36 1.5M
20260501T00Z_MSC_GDPS_WindDir_IsbL-0700_LatLon0.15_PT150H.grib2 2026-05-01 04:36 1.6M
20260501T00Z_MSC_GDPS_WindDir_IsbL-0750_LatLon0.15_PT150H.grib2 2026-05-01 04:36 1.7M
20260501T00Z_MSC_GDPS_WindDir_IsbL-0800_LatLon0.15_PT150H.grib2 2026-05-01 04:36 1.8M
20260501T00Z_MSC_GDPS_WindDir_IsbL-0850_LatLon0.15_PT150H.grib2 2026-05-01 04:36 1.9M
20260501T00Z_MSC_GDPS_WindDir_IsbL-0875_LatLon0.15_PT150H.grib2 2026-05-01 04:36 1.9M
20260501T00Z_MSC_GDPS_WindDir_IsbL-0900_LatLon0.15_PT150H.grib2 2026-05-01 04:36 2.0M
20260501T00Z_MSC_GDPS_WindDir_IsbL-0925_LatLon0.15_PT150H.grib2 2026-05-01 04:36 2.0M
20260501T00Z_MSC_GDPS_WindDir_IsbL-0950_LatLon0.15_PT150H.grib2 2026-05-01 04:36 2.0M
20260501T00Z_MSC_GDPS_WindDir_IsbL-0970_LatLon0.15_PT150H.grib2 2026-05-01 04:36 2.0M
20260501T00Z_MSC_GDPS_WindDir_IsbL-0985_LatLon0.15_PT150H.grib2 2026-05-01 04:36 2.0M
20260501T00Z_MSC_GDPS_WindDir_IsbL-1000_LatLon0.15_PT150H.grib2 2026-05-01 04:36 2.0M
20260501T00Z_MSC_GDPS_WindDir_IsbL-1015_LatLon0.15_PT150H.grib2 2026-05-01 04:36 2.0M
20260501T00Z_MSC_GDPS_WindGust-Max_AGL-10m_LatLon0.15_PT150H.grib2 2026-05-01 04:36 2.2M
20260501T00Z_MSC_GDPS_WindGust-Min_AGL-10m_LatLon0.15_PT150H.grib2 2026-05-01 04:36 2.2M
20260501T00Z_MSC_GDPS_WindGust_AGL-10m_LatLon0.15_PT150H.grib2 2026-05-01 04:36 2.2M
20260501T00Z_MSC_GDPS_WindSpeed_AGL-10m_LatLon0.15_PT150H.grib2 2026-05-01 04:36 1.1M
20260501T00Z_MSC_GDPS_WindSpeed_AGL-120m_LatLon0.15_PT150H.grib2 2026-05-01 04:36 1.2M
20260501T00Z_MSC_GDPS_WindSpeed_AGL-40m_LatLon0.15_PT150H.grib2 2026-05-01 04:36 1.2M
20260501T00Z_MSC_GDPS_WindSpeed_AGL-80m_LatLon0.15_PT150H.grib2 2026-05-01 04:36 1.2M
20260501T00Z_MSC_GDPS_WindSpeed_IsbL-0001_LatLon0.15_PT150H.grib2 2026-05-01 04:36 651K
20260501T00Z_MSC_GDPS_WindSpeed_IsbL-0005_LatLon0.15_PT150H.grib2 2026-05-01 04:36 691K
20260501T00Z_MSC_GDPS_WindSpeed_IsbL-0010_LatLon0.15_PT150H.grib2 2026-05-01 04:36 622K
20260501T00Z_MSC_GDPS_WindSpeed_IsbL-0020_LatLon0.15_PT150H.grib2 2026-05-01 04:36 662K
20260501T00Z_MSC_GDPS_WindSpeed_IsbL-0030_LatLon0.15_PT150H.grib2 2026-05-01 04:36 857K
20260501T00Z_MSC_GDPS_WindSpeed_IsbL-0050_LatLon0.15_PT150H.grib2 2026-05-01 04:36 890K
20260501T00Z_MSC_GDPS_WindSpeed_IsbL-0100_LatLon0.15_PT150H.grib2 2026-05-01 04:36 857K
20260501T00Z_MSC_GDPS_WindSpeed_IsbL-0150_LatLon0.15_PT150H.grib2 2026-05-01 04:36 1.0M
20260501T00Z_MSC_GDPS_WindSpeed_IsbL-0175_LatLon0.15_PT150H.grib2 2026-05-01 04:36 1.0M
20260501T00Z_MSC_GDPS_WindSpeed_IsbL-0200_LatLon0.15_PT150H.grib2 2026-05-01 04:36 1.1M
20260501T00Z_MSC_GDPS_WindSpeed_IsbL-0225_LatLon0.15_PT150H.grib2 2026-05-01 04:36 1.1M
20260501T00Z_MSC_GDPS_WindSpeed_IsbL-0250_LatLon0.15_PT150H.grib2 2026-05-01 04:36 1.1M
20260501T00Z_MSC_GDPS_WindSpeed_IsbL-0275_LatLon0.15_PT150H.grib2 2026-05-01 04:36 1.1M
20260501T00Z_MSC_GDPS_WindSpeed_IsbL-0300_LatLon0.15_PT150H.grib2 2026-05-01 04:36 1.1M
20260501T00Z_MSC_GDPS_WindSpeed_IsbL-0350_LatLon0.15_PT150H.grib2 2026-05-01 04:36 1.1M
20260501T00Z_MSC_GDPS_WindSpeed_IsbL-0400_LatLon0.15_PT150H.grib2 2026-05-01 04:36 1.1M
20260501T00Z_MSC_GDPS_WindSpeed_IsbL-0450_LatLon0.15_PT150H.grib2 2026-05-01 04:36 1.1M
20260501T00Z_MSC_GDPS_WindSpeed_IsbL-0500_LatLon0.15_PT150H.grib2 2026-05-01 04:36 1.1M
20260501T00Z_MSC_GDPS_WindSpeed_IsbL-0550_LatLon0.15_PT150H.grib2 2026-05-01 04:36 1.1M
20260501T00Z_MSC_GDPS_WindSpeed_IsbL-0600_LatLon0.15_PT150H.grib2 2026-05-01 04:36 1.1M
20260501T00Z_MSC_GDPS_WindSpeed_IsbL-0650_LatLon0.15_PT150H.grib2 2026-05-01 04:36 1.2M
20260501T00Z_MSC_GDPS_WindSpeed_IsbL-0700_LatLon0.15_PT150H.grib2 2026-05-01 04:36 1.5M
20260501T00Z_MSC_GDPS_WindSpeed_IsbL-0750_LatLon0.15_PT150H.grib2 2026-05-01 04:36 1.5M
20260501T00Z_MSC_GDPS_WindSpeed_IsbL-0800_LatLon0.15_PT150H.grib2 2026-05-01 04:36 1.6M
20260501T00Z_MSC_GDPS_WindSpeed_IsbL-0850_LatLon0.15_PT150H.grib2 2026-05-01 04:36 1.7M
20260501T00Z_MSC_GDPS_WindSpeed_IsbL-0875_LatLon0.15_PT150H.grib2 2026-05-01 04:36 1.8M
20260501T00Z_MSC_GDPS_WindSpeed_IsbL-0900_LatLon0.15_PT150H.grib2 2026-05-01 04:36 1.8M
20260501T00Z_MSC_GDPS_WindSpeed_IsbL-0925_LatLon0.15_PT150H.grib2 2026-05-01 04:36 1.9M
20260501T00Z_MSC_GDPS_WindSpeed_IsbL-0950_LatLon0.15_PT150H.grib2 2026-05-01 04:36 1.9M
20260501T00Z_MSC_GDPS_WindSpeed_IsbL-0970_LatLon0.15_PT150H.grib2 2026-05-01 04:36 1.9M
20260501T00Z_MSC_GDPS_WindSpeed_IsbL-0985_LatLon0.15_PT150H.grib2 2026-05-01 04:36 1.9M
20260501T00Z_MSC_GDPS_WindSpeed_IsbL-1000_LatLon0.15_PT150H.grib2 2026-05-01 04:36 1.8M
20260501T00Z_MSC_GDPS_WindSpeed_IsbL-1015_LatLon0.15_PT150H.grib2 2026-05-01 04:36 1.8M
20260501T00Z_MSC_GDPS_WindU_AGL-10m_LatLon0.15_PT150H.grib2 2026-05-01 04:36 1.3M
20260501T00Z_MSC_GDPS_WindU_AGL-120m_LatLon0.15_PT150H.grib2 2026-05-01 04:36 960K
20260501T00Z_MSC_GDPS_WindU_AGL-40m_LatLon0.15_PT150H.grib2 2026-05-01 04:36 955K
20260501T00Z_MSC_GDPS_WindU_AGL-80m_LatLon0.15_PT150H.grib2 2026-05-01 04:36 960K
20260501T00Z_MSC_GDPS_WindU_IsbL-0001_LatLon0.15_PT150H.grib2 2026-05-01 04:36 502K
20260501T00Z_MSC_GDPS_WindU_IsbL-0005_LatLon0.15_PT150H.grib2 2026-05-01 04:36 690K
20260501T00Z_MSC_GDPS_WindU_IsbL-0010_LatLon0.15_PT150H.grib2 2026-05-01 04:36 698K
20260501T00Z_MSC_GDPS_WindU_IsbL-0020_LatLon0.15_PT150H.grib2 2026-05-01 04:36 730K
20260501T00Z_MSC_GDPS_WindU_IsbL-0030_LatLon0.15_PT150H.grib2 2026-05-01 04:36 736K
20260501T00Z_MSC_GDPS_WindU_IsbL-0050_LatLon0.15_PT150H.grib2 2026-05-01 04:36 759K
20260501T00Z_MSC_GDPS_WindU_IsbL-0100_LatLon0.15_PT150H.grib2 2026-05-01 04:36 915K
20260501T00Z_MSC_GDPS_WindU_IsbL-0150_LatLon0.15_PT150H.grib2 2026-05-01 04:36 1.0M
20260501T00Z_MSC_GDPS_WindU_IsbL-0175_LatLon0.15_PT150H.grib2 2026-05-01 04:36 808K
20260501T00Z_MSC_GDPS_WindU_IsbL-0200_LatLon0.15_PT150H.grib2 2026-05-01 04:36 838K
20260501T00Z_MSC_GDPS_WindU_IsbL-0225_LatLon0.15_PT150H.grib2 2026-05-01 04:36 848K
20260501T00Z_MSC_GDPS_WindU_IsbL-0250_LatLon0.15_PT150H.grib2 2026-05-01 04:36 849K
20260501T00Z_MSC_GDPS_WindU_IsbL-0275_LatLon0.15_PT150H.grib2 2026-05-01 04:36 877K
20260501T00Z_MSC_GDPS_WindU_IsbL-0300_LatLon0.15_PT150H.grib2 2026-05-01 04:36 870K
20260501T00Z_MSC_GDPS_WindU_IsbL-0350_LatLon0.15_PT150H.grib2 2026-05-01 04:36 1.1M
20260501T00Z_MSC_GDPS_WindU_IsbL-0400_LatLon0.15_PT150H.grib2 2026-05-01 04:36 1.1M
20260501T00Z_MSC_GDPS_WindU_IsbL-0450_LatLon0.15_PT150H.grib2 2026-05-01 04:36 1.1M
20260501T00Z_MSC_GDPS_WindU_IsbL-0500_LatLon0.15_PT150H.grib2 2026-05-01 04:36 1.1M
20260501T00Z_MSC_GDPS_WindU_IsbL-0550_LatLon0.15_PT150H.grib2 2026-05-01 04:36 1.1M
20260501T00Z_MSC_GDPS_WindU_IsbL-0600_LatLon0.15_PT150H.grib2 2026-05-01 04:36 1.1M
20260501T00Z_MSC_GDPS_WindU_IsbL-0650_LatLon0.15_PT150H.grib2 2026-05-01 04:36 1.2M
20260501T00Z_MSC_GDPS_WindU_IsbL-0700_LatLon0.15_PT150H.grib2 2026-05-01 04:36 1.2M
20260501T00Z_MSC_GDPS_WindU_IsbL-0750_LatLon0.15_PT150H.grib2 2026-05-01 04:36 1.3M
20260501T00Z_MSC_GDPS_WindU_IsbL-0800_LatLon0.15_PT150H.grib2 2026-05-01 04:36 1.3M
20260501T00Z_MSC_GDPS_WindU_IsbL-0850_LatLon0.15_PT150H.grib2 2026-05-01 04:36 1.4M
20260501T00Z_MSC_GDPS_WindU_IsbL-0875_LatLon0.15_PT150H.grib2 2026-05-01 04:36 1.4M
20260501T00Z_MSC_GDPS_WindU_IsbL-0900_LatLon0.15_PT150H.grib2 2026-05-01 04:36 1.5M
20260501T00Z_MSC_GDPS_WindU_IsbL-0925_LatLon0.15_PT150H.grib2 2026-05-01 04:36 1.5M
20260501T00Z_MSC_GDPS_WindU_IsbL-0950_LatLon0.15_PT150H.grib2 2026-05-01 04:36 1.4M
20260501T00Z_MSC_GDPS_WindU_IsbL-0970_LatLon0.15_PT150H.grib2 2026-05-01 04:36 1.4M
20260501T00Z_MSC_GDPS_WindU_IsbL-0985_LatLon0.15_PT150H.grib2 2026-05-01 04:36 1.4M
20260501T00Z_MSC_GDPS_WindU_IsbL-1000_LatLon0.15_PT150H.grib2 2026-05-01 04:36 1.4M
20260501T00Z_MSC_GDPS_WindU_IsbL-1015_LatLon0.15_PT150H.grib2 2026-05-01 04:36 1.3M
20260501T00Z_MSC_GDPS_WindV_AGL-10m_LatLon0.15_PT150H.grib2 2026-05-01 04:36 1.5M
20260501T00Z_MSC_GDPS_WindV_AGL-120m_LatLon0.15_PT150H.grib2 2026-05-01 04:36 961K
20260501T00Z_MSC_GDPS_WindV_AGL-40m_LatLon0.15_PT150H.grib2 2026-05-01 04:36 956K
20260501T00Z_MSC_GDPS_WindV_AGL-80m_LatLon0.15_PT150H.grib2 2026-05-01 04:36 961K
20260501T00Z_MSC_GDPS_WindV_IsbL-0001_LatLon0.15_PT150H.grib2 2026-05-01 04:36 715K
20260501T00Z_MSC_GDPS_WindV_IsbL-0005_LatLon0.15_PT150H.grib2 2026-05-01 04:36 853K
20260501T00Z_MSC_GDPS_WindV_IsbL-0010_LatLon0.15_PT150H.grib2 2026-05-01 04:36 789K
20260501T00Z_MSC_GDPS_WindV_IsbL-0020_LatLon0.15_PT150H.grib2 2026-05-01 04:36 846K
20260501T00Z_MSC_GDPS_WindV_IsbL-0030_LatLon0.15_PT150H.grib2 2026-05-01 04:36 848K
20260501T00Z_MSC_GDPS_WindV_IsbL-0050_LatLon0.15_PT150H.grib2 2026-05-01 04:36 971K
20260501T00Z_MSC_GDPS_WindV_IsbL-0100_LatLon0.15_PT150H.grib2 2026-05-01 04:36 1.0M
20260501T00Z_MSC_GDPS_WindV_IsbL-0150_LatLon0.15_PT150H.grib2 2026-05-01 04:36 1.0M
20260501T00Z_MSC_GDPS_WindV_IsbL-0175_LatLon0.15_PT150H.grib2 2026-05-01 04:36 1.0M
20260501T00Z_MSC_GDPS_WindV_IsbL-0200_LatLon0.15_PT150H.grib2 2026-05-01 04:36 835K
20260501T00Z_MSC_GDPS_WindV_IsbL-0225_LatLon0.15_PT150H.grib2 2026-05-01 04:36 844K
20260501T00Z_MSC_GDPS_WindV_IsbL-0250_LatLon0.15_PT150H.grib2 2026-05-01 04:36 903K
20260501T00Z_MSC_GDPS_WindV_IsbL-0275_LatLon0.15_PT150H.grib2 2026-05-01 04:36 931K
20260501T00Z_MSC_GDPS_WindV_IsbL-0300_LatLon0.15_PT150H.grib2 2026-05-01 04:36 924K
20260501T00Z_MSC_GDPS_WindV_IsbL-0350_LatLon0.15_PT150H.grib2 2026-05-01 04:36 936K
20260501T00Z_MSC_GDPS_WindV_IsbL-0400_LatLon0.15_PT150H.grib2 2026-05-01 04:36 938K
20260501T00Z_MSC_GDPS_WindV_IsbL-0450_LatLon0.15_PT150H.grib2 2026-05-01 04:36 881K
20260501T00Z_MSC_GDPS_WindV_IsbL-0500_LatLon0.15_PT150H.grib2 2026-05-01 04:36 884K
20260501T00Z_MSC_GDPS_WindV_IsbL-0550_LatLon0.15_PT150H.grib2 2026-05-01 04:36 1.1M
20260501T00Z_MSC_GDPS_WindV_IsbL-0600_LatLon0.15_PT150H.grib2 2026-05-01 04:36 1.1M
20260501T00Z_MSC_GDPS_WindV_IsbL-0650_LatLon0.15_PT150H.grib2 2026-05-01 04:36 1.2M
20260501T00Z_MSC_GDPS_WindV_IsbL-0700_LatLon0.15_PT150H.grib2 2026-05-01 04:36 1.2M
20260501T00Z_MSC_GDPS_WindV_IsbL-0750_LatLon0.15_PT150H.grib2 2026-05-01 04:36 1.3M
20260501T00Z_MSC_GDPS_WindV_IsbL-0800_LatLon0.15_PT150H.grib2 2026-05-01 04:36 1.3M
20260501T00Z_MSC_GDPS_WindV_IsbL-0850_LatLon0.15_PT150H.grib2 2026-05-01 04:36 1.4M
20260501T00Z_MSC_GDPS_WindV_IsbL-0875_LatLon0.15_PT150H.grib2 2026-05-01 04:36 1.4M
20260501T00Z_MSC_GDPS_WindV_IsbL-0900_LatLon0.15_PT150H.grib2 2026-05-01 04:36 1.4M
20260501T00Z_MSC_GDPS_WindV_IsbL-0925_LatLon0.15_PT150H.grib2 2026-05-01 04:36 1.4M
20260501T00Z_MSC_GDPS_WindV_IsbL-0950_LatLon0.15_PT150H.grib2 2026-05-01 04:36 1.4M
20260501T00Z_MSC_GDPS_WindV_IsbL-0970_LatLon0.15_PT150H.grib2 2026-05-01 04:36 1.4M
20260501T00Z_MSC_GDPS_WindV_IsbL-0985_LatLon0.15_PT150H.grib2 2026-05-01 04:36 1.4M
20260501T00Z_MSC_GDPS_WindV_IsbL-1000_LatLon0.15_PT150H.grib2 2026-05-01 04:36 1.4M
20260501T00Z_MSC_GDPS_WindV_IsbL-1015_LatLon0.15_PT150H.grib2 2026-05-01 04:36 1.6M